GFSFLT1_sfc_rhum_021.txt.gz
RH
31 31 26 24 30 42 54 60 65 74 77 67 55 57 53 45 39 36 38 39 41 39 38 45 41 37 39 43 49 43 41 36
35 37 37 35 41 47 66 71 73 72 55 53 52 47 42 38 34 38 38 37 37 40 35 37 40 42 45 46 45 48 36 34
38 41 42 43 46 50 63 60 63 54 43 40 39 39 34 32 35 40 36 37 36 34 43 42 42 42 44 43 44 44 38 36
41 44 46 49 53 58 55 53 49 40 39 38 38 37 38 34 35 33 36 39 37 39 41 42 43 40 36 42 43 48 42 38
40 44 48 51 52 49 43 42 39 41 35 31 34 31 34 38 36 36 35 38 40 37 36 40 42 40 43 42 33 45 46 42
40 43 42 42 43 42 41 39 33 33 35 38 36 39 38 35 36 36 34 30 27 25 26 32 42 42 44 46 48 47 43 47
33 33 35 38 39 41 40 34 34 36 38 41 43 41 36 32 30 26 24 23 22 25 25 32 36 41 45 44 46 48 52 50
29 31 31 35 40 41 38 35 37 38 37 35 36 35 30 29 26 24 27 24 25 28 33 37 36 38 41 44 50 56 60 46
28 28 30 34 39 38 36 35 35 33 33 30 29 30 32 27 26 28 27 27 28 31 34 38 42 40 42 58 52 62 56 52
28 29 32 35 38 39 40 35 30 29 30 35 36 41 30 30 31 32 29 30 26 30 35 38 40 42 48 62 62 62 51 49
28 29 35 36 37 41 40 32 29 32 35 37 41 36 28 30 32 32 31 32 33 34 36 36 38 40 55 53 51 50 53 57
30 33 34 36 37 38 35 29 32 35 33 37 42 30 30 31 32 32 31 34 33 33 34 37 38 38 38 43 48 53 55 56
29 33 36 36 39 35 31 32 34 32 30 31 29 29 27 29 32 32 32 34 34 33 35 36 35 35 39 45 51 55 54 47
29 33 36 36 38 34 31 34 34 29 30 27 25 28 28 30 32 32 32 33 35 35 35 38 38 45 54 44 39 40 41 44
30 34 35 36 37 32 31 35 36 37 29 21 24 27 30 32 32 33 35 34 37 36 37 37 40 39 40 44 45 45 46 44
33 36 34 34 35 32 30 36 42 34 25 23 26 27 30 32 34 34 36 38 37 35 37 38 38 45 46 50 47 49 47 49
33 34 32 33 32 31 30 42 38 31 28 28 27 28 30 34 33 37 37 36 35 37 38 39 42 46 81 72 61 45 43 46
33 33 33 32 30 30 30 37 30 30 28 26 27 29 31 32 30 29 32 36 39 40 40 43 48 53 79 70 62 44 44 43
31 31 33 32 30 28 35 27 29 29 28 29 29 30 26 27 29 30 34 38 41 42 42 43 46 54 75 64 62 51 46 45

GFSFLT1_sfc_rhum_024.txt.gz
RH
30 30 29 30 46 56 63 72 81 76 86 90 75 73 72 68 63 58 56 56 57 62 68 64 62 65 67 71 71 68 70 62
33 38 38 38 51 65 69 84 89 77 86 82 69 73 64 62 51 55 54 53 51 56 64 64 64 66 69 64 65 66 67 63
38 40 45 48 54 69 77 80 84 73 71 66 60 57 59 52 56 56 53 54 52 51 61 62 65 65 64 66 67 70 67 66
40 44 50 55 69 72 70 70 70 66 62 51 52 51 57 53 56 56 55 53 51 53 56 60 63 63 65 68 66 67 71 66
38 44 50 75 72 74 65 63 58 52 53 54 56 51 54 58 59 59 54 52 50 43 45 54 61 66 68 69 53 70 68 70
40 44 58 61 63 65 60 54 49 48 49 55 57 59 60 58 58 51 46 48 42 39 44 56 59 62 66 69 71 68 68 70
38 43 48 50 54 58 59 47 43 48 53 59 62 61 55 51 50 50 44 44 44 47 46 56 59 62 64 69 68 66 70 79
43 45 45 48 54 56 52 43 46 52 55 53 55 50 52 54 50 47 44 46 48 51 52 57 60 63 64 68 72 70 77 84
39 42 44 46 50 49 46 43 46 46 48 46 47 47 50 49 48 42 46 47 50 49 54 55 57 59 64 67 74 76 80 84
35 36 41 44 47 51 52 45 42 42 44 50 53 52 51 52 46 45 50 48 37 50 54 55 56 59 63 64 82 82 83 83
32 32 41 42 46 51 55 48 41 41 45 54 49 49 50 49 48 47 44 48 48 52 53 54 55 57 59 64 71 68 72 80
32 32 37 41 45 47 51 43 37 41 46 50 54 50 48 46 48 46 45 48 48 48 49 51 52 54 56 60 64 65 69 75
31 33 38 41 44 46 47 43 38 44 44 45 47 48 42 48 46 44 46 47 49 48 49 49 50 51 58 65 68 63 66 69
31 34 38 40 43 47 44 42 42 41 38 38 39 44 43 45 43 46 45 48 48 50 49 54 53 56 57 60 61 61 62 62
29 34 38 41 43 46 42 41 46 40 39 39 38 45 47 44 45 47 48 50 50 52 53 53 57 51 49 54 53 60 64 62
28 34 39 40 44 45 40 41 44 47 47 39 43 41 40 43 48 49 50 53 49 51 50 54 56 53 53 64 60 64 67 64
26 32 38 40 40 43 40 40 45 50 48 43 38 39 39 46 49 51 53 53 51 51 52 54 61 50 78 71 63 62 61 61
28 36 38 42 39 42 42 39 48 51 43 38 38 40 42 48 41 39 42 50 54 56 57 55 57 74 78 68 64 57 64 66
31 34 38 39 38 38 40 34 43 44 39 37 41 41 38 38 43 42 48 52 57 60 61 58 58 68 79 69 65 63 70 65

GFSFLT1_sfc_rhum_030.txt.gz
RH
66 71 72 71 71 78 88 85 93 91 95 97 98 97 97 94 90 83 68 70 76 78 78 81 77 74 71 71 67 70 75 75
52 68 69 68 71 83 89 92 93 90 95 98 98 97 94 90 80 69 66 67 69 73 78 73 71 67 68 70 72 71 72 77
51 62 66 68 75 82 89 88 90 82 90 96 92 92 85 77 73 69 66 68 68 68 72 69 66 65 67 70 73 75 83 75
48 59 66 73 77 91 90 92 88 82 81 93 84 76 75 73 74 72 69 65 63 65 68 70 73 74 74 74 75 76 76 76
54 58 73 79 92 93 92 91 88 86 90 89 79 70 63 75 75 73 71 67 56 55 58 62 65 69 68 77 74 81 83 80
56 74 82 82 93 96 95 92 88 88 91 82 74 72 75 80 79 71 52 53 56 55 57 60 67 74 72 74 79 86 84 83
66 85 86 94 92 94 95 95 92 85 90 73 69 74 76 70 63 54 56 61 61 55 56 63 64 68 74 78 83 81 86 88
84 91 94 95 95 94 93 75 70 73 76 76 72 63 56 50 54 55 57 54 55 51 58 58 63 66 69 78 80 82 86 89
77 84 88 92 90 87 76 64 63 60 57 58 50 49 53 56 55 53 55 55 57 54 55 58 60 61 63 68 80 86 87 91
79 80 82 83 76 70 66 59 55 56 62 50 56 59 58 57 52 54 58 56 50 55 57 58 57 59 62 69 79 85 90 90
74 73 73 68 68 73 74 59 56 58 62 62 52 53 56 55 57 54 53 53 51 52 53 53 55 58 63 69 75 75 78 85
69 68 65 61 60 65 64 59 55 61 54 59 56 55 58 57 55 54 52 52 50 52 55 53 54 58 63 70 74 72 71 79
62 63 64 64 63 67 63 59 52 49 54 60 60 60 60 55 55 52 57 53 55 56 57 54 55 57 62 70 76 70 65 67
57 61 62 62 62 63 62 59 53 55 61 58 60 56 55 51 55 59 60 58 57 58 56 56 58 61 62 65 73 72 69 70
51 56 58 58 59 60 66 60 60 61 55 54 56 53 54 57 57 61 63 60 58 59 59 60 64 63 61 62 66 70 71 71
56 54 56 62 66 71 64 61 65 58 57 54 53 54 57 58 65 62 63 63 57 58 62 64 66 65 65 69 65 69 68 67
46 52 60 63 66 71 70 63 64 60 53 52 54 58 60 64 63 62 56 52 50 56 60 68 68 63 74 80 71 68 63 65
57 62 62 66 68 69 68 67 63 58 60 60 60 58 55 58 54 51 54 60 60 61 66 68 69 73 83 76 72 63 66 73
49 57 67 69 74 71 67 68 73 63 57 56 55 60 58 60 63 71 77 72 66 66 67 69 71 73 84 79 72 67 70 75

GFSFLT1_sfc_rhum_033.txt.gz
RH
73 73 75 79 91 89 93 91 95 92 96 97 98 97 97 96 95 90 78 83 78 78 82 81 76 73 73 72 66 74 78 79
72 74 74 83 88 93 94 94 96 90 95 97 98 97 97 95 90 72 73 79 76 77 79 76 75 70 72 69 74 72 78 77
74 78 81 85 83 89 93 91 95 85 89 97 96 97 95 90 82 74 72 74 74 73 74 74 72 73 73 76 75 79 85 77
70 78 83 82 82 87 89 91 92 84 88 96 95 84 82 78 78 77 73 72 69 72 74 77 77 77 78 81 81 78 77 76
59 71 81 80 79 83 86 89 91 85 90 92 90 90 84 78 79 77 76 71 67 60 62 67 71 74 73 76 76 85 86 83
55 66 72 73 83 93 93 94 91 86 87 91 95 90 80 83 82 80 59 65 62 58 62 65 67 76 76 77 83 86 91 87
69 65 73 78 95 96 97 96 94 94 92 95 94 87 82 78 80 66 66 68 64 64 58 64 64 68 67 79 83 82 86 89
86 89 86 92 97 96 97 94 96 96 96 92 85 80 76 70 65 61 65 64 61 60 58 62 64 60 60 69 81 82 86 91
82 88 92 94 95 95 95 96 89 85 93 87 82 81 87 83 75 60 55 57 58 57 59 60 57 56 58 67 75 79 89 93
88 91 93 96 95 96 95 86 78 76 78 70 70 72 69 70 66 54 56 60 54 58 58 57 58 58 62 69 80 81 92 92
93 93 96 96 95 90 87 71 65 65 63 61 59 54 53 52 52 54 53 55 58 58 58 56 58 58 62 70 76 76 76 84
86 84 86 86 80 78 74 64 59 62 60 59 64 62 64 56 49 49 49 54 54 54 56 59 58 60 62 69 72 76 78 80
80 81 81 75 75 74 69 62 56 59 68 72 69 63 58 53 52 52 57 51 56 59 61 61 61 61 62 69 73 73 77 74
81 82 76 70 68 69 69 71 74 70 70 66 61 62 55 52 54 55 59 63 62 62 63 62 62 63 63 68 73 78 78 75
75 79 77 72 68 73 79 83 73 68 62 62 65 60 55 52 53 58 61 62 62 62 61 62 65 65 66 67 72 77 77 77
67 73 77 77 86 85 83 80 76 74 67 64 64 57 59 60 66 66 68 64 61 60 60 64 68 68 65 74 72 76 77 76
61 61 67 75 78 84 79 75 74 70 69 71 68 67 70 70 67 64 63 64 63 62 66 69 72 64 74 82 78 78 72 73
61 66 65 71 78 79 76 76 77 74 67 68 67 62 60 62 61 66 72 78 82 79 71 66 69 73 79 84 83 76 74 74
63 68 77 84 85 81 78 72 73 69 68 65 63 65 68 70 74 81 90 90 88 82 73 72 74 72 81 84 84 72 72 72

GFSFLT1_sfc_rhum_036.txt.gz
RH
76 80 81 85 93 94 93 96 96 96 98 98 98 98 98 98 98 98 91 89 79 81 84 81 76 76 76 71 70 77 78 77
72 80 83 91 95 96 96 97 98 96 98 99 99 98 98 97 96 83 87 81 77 81 82 80 77 74 75 72 77 73 82 78
72 86 88 89 93 95 96 95 97 92 92 97 96 97 97 96 86 77 83 79 77 75 79 78 75 77 78 79 77 82 86 81
76 85 85 84 92 94 93 94 96 89 90 97 97 90 89 88 84 80 80 78 76 77 78 80 80 79 79 84 83 79 81 83
78 80 87 88 90 92 93 95 96 90 93 91 94 92 92 88 84 81 81 78 75 70 68 72 74 78 76 78 77 84 82 85
72 77 79 86 93 95 95 94 94 88 88 88 94 95 96 95 84 83 72 70 66 65 70 72 75 78 74 73 76 82 88 86
63 69 80 88 94 95 96 95 93 91 90 94 94 94 93 92 91 76 72 72 71 67 65 69 70 69 70 77 84 83 89 89
65 71 82 92 94 95 96 95 93 96 94 96 95 91 87 81 80 74 71 70 73 67 63 68 66 64 70 73 78 79 84 89
59 66 72 86 92 95 95 95 94 97 97 97 96 91 88 86 84 74 73 66 69 61 64 70 76 64 62 63 70 76 83 91
61 74 81 86 94 94 95 94 92 95 95 98 94 91 93 88 82 76 66 62 59 68 80 73 65 60 60 64 73 75 86 92
86 92 93 92 93 93 95 94 95 93 95 95 91 88 88 87 77 70 64 62 58 73 68 60 62 60 62 67 72 80 89 88
93 94 95 94 94 96 97 96 90 85 82 83 85 86 88 84 76 70 60 59 62 66 58 61 61 61 63 70 74 78 80 82
92 94 96 98 97 96 96 92 82 82 86 86 87 84 79 75 65 51 57 55 62 55 64 62 60 62 66 71 74 70 79 82
90 93 94 92 93 92 90 86 80 84 83 82 83 71 69 56 53 53 58 61 65 65 63 62 63 66 65 69 72 73 78 81
89 91 91 88 88 91 90 90 84 82 80 78 72 77 59 59 62 64 66 63 64 65 63 65 66 64 67 68 68 76 81 81
83 86 89 88 90 90 92 92 88 87 79 74 74 69 70 74 73 70 72 67 64 63 64 72 76 78 64 72 73 79 83 84
71 73 82 85 88 91 91 87 84 83 81 77 77 80 77 79 75 71 68 69 76 82 84 86 89 66 73 80 82 83 82 80
69 82 87 84 84 88 90 88 86 82 82 80 79 76 67 71 74 74 81 88 90 90 93 88 82 73 78 82 86 87 82 80
74 80 81 83 88 86 83 79 77 74 74 73 72 72 79 81 85 90 93 93 95 96 89 84 77 74 82 85 88 90 83 79

GFSFLT1_sfc_rhum_039.txt.gz
RH
64 65 63 64 69 73 72 78 82 84 82 80 77 76 77 83 84 82 77 70 67 63 62 66 58 53 51 48 52 50 47 45
60 63 64 63 68 72 73 79 83 80 85 85 80 85 87 88 84 81 76 66 63 64 59 59 55 52 53 55 53 53 49 52
62 64 67 67 64 71 78 78 80 76 74 73 69 74 79 76 79 72 71 67 61 60 60 56 55 54 59 58 55 52 52 54
62 65 67 67 67 71 76 77 78 76 73 73 75 72 72 79 72 64 66 63 58 59 60 57 58 55 52 55 55 56 48 56
59 61 66 70 68 72 74 78 77 76 78 73 75 72 71 72 66 58 60 62 60 55 57 60 56 51 54 53 52 54 56 50
57 58 58 62 71 79 78 76 76 75 78 75 84 78 78 80 67 68 66 64 60 55 54 55 54 49 56 59 66 68 68 71
50 54 57 59 72 79 82 79 78 79 84 82 81 79 81 79 71 67 63 58 55 54 49 51 52 52 57 71 84 87 78 58
47 51 58 62 76 80 81 78 88 90 87 85 86 85 78 75 72 73 74 64 58 58 52 56 51 52 66 82 81 71 62 58
44 45 50 62 72 76 79 78 83 93 90 87 84 80 82 78 77 78 71 59 58 54 53 52 54 57 59 71 67 59 59 60
44 44 51 59 71 78 80 77 76 90 93 88 86 84 82 81 82 78 72 63 56 58 57 59 61 67 61 60 57 56 61 65
50 50 55 60 67 72 81 76 73 76 84 87 90 85 80 81 83 76 68 64 58 58 62 66 60 53 67 53 51 54 59 62
53 57 65 66 69 73 76 73 71 76 80 84 86 85 85 85 87 77 72 66 55 52 62 62 63 49 49 50 54 54 58 58
55 64 70 77 76 76 79 81 80 78 79 84 84 83 86 86 85 80 71 63 53 51 58 61 61 49 49 51 53 62 58 58
61 68 71 75 79 82 81 80 79 75 73 73 74 77 80 82 82 73 64 56 53 64 62 61 54 50 50 56 76 63 56 56
63 70 71 72 75 75 76 78 76 73 70 68 72 74 72 71 64 59 62 62 62 57 62 66 58 56 61 79 70 60 58 56
65 67 69 69 71 72 74 74 71 67 65 62 66 64 59 58 60 72 73 70 64 63 62 73 79 81 82 79 66 62 61 60
64 60 64 70 72 70 73 71 69 65 64 62 62 65 67 72 74 77 75 71 74 76 84 86 90 86 87 86 76 60 60 62
67 71 74 74 73 75 73 71 69 66 66 64 64 65 69 74 75 79 87 86 85 91 93 90 85 81 88 84 85 62 61 59
68 66 66 66 66 67 67 63 64 64 62 61 61 65 75 79 83 83 89 90 91 90 83 83 82 78 82 83 86 59 61 62

GFSFLT1_sfc_rhum_042.txt.gz
RH
60 50 46 46 45 48 52 55 65 69 66 57 45 42 43 52 58 56 62 56 59 53 48 54 49 45 46 41 44 35 31 29
48 50 50 48 50 50 52 59 61 60 70 58 48 45 47 58 64 65 65 56 56 55 49 54 48 46 45 48 42 43 35 32
41 46 49 51 50 54 56 53 56 58 55 53 44 46 45 49 58 65 64 61 55 54 53 51 48 46 50 48 44 37 32 36
41 42 45 49 49 51 51 51 53 56 53 50 45 48 54 59 67 70 65 62 54 53 54 49 50 46 46 47 42 37 38 41
35 39 40 43 46 46 48 49 51 52 55 52 56 48 49 54 61 59 55 61 56 49 50 51 52 45 45 42 35 41 47 51
33 35 35 37 42 47 50 50 54 53 57 57 58 57 48 49 58 57 59 60 57 52 52 52 51 43 44 41 48 50 59 68
29 30 34 36 40 47 52 52 52 57 64 69 69 69 61 71 64 58 57 58 56 58 51 53 49 42 45 46 51 61 66 54
30 30 31 35 42 51 55 52 51 68 78 86 82 77 73 78 70 63 60 62 67 65 57 53 45 45 45 50 67 61 61 49
27 30 31 33 40 48 58 59 62 68 76 89 80 77 87 84 72 68 64 70 67 64 59 53 45 45 55 65 68 69 51 49
23 26 30 33 39 48 56 57 60 61 74 87 81 79 82 76 73 65 67 71 64 63 58 53 52 57 66 67 60 55 45 48
26 27 29 33 36 46 56 56 51 56 70 80 82 76 76 75 75 73 72 66 59 56 52 51 56 61 60 72 65 45 44 47
30 31 34 37 39 44 51 52 49 52 60 64 77 75 75 78 77 74 70 69 68 61 54 53 63 62 60 57 52 44 51 65
28 35 41 44 46 46 50 50 49 50 54 60 68 75 79 85 84 79 74 73 66 59 51 59 54 46 50 57 58 48 72 62
32 40 42 46 51 55 56 59 56 56 56 61 66 74 82 86 87 83 80 76 68 57 56 61 54 54 55 59 72 82 79 58
32 40 43 47 54 56 57 63 63 61 59 59 64 67 68 70 74 76 73 70 61 69 71 68 66 57 56 69 79 83 76 68
42 42 45 48 54 58 58 60 60 59 58 56 64 62 58 57 59 58 58 58 57 66 62 80 70 70 77 72 71 84 78 59
45 47 49 53 54 54 58 58 59 54 54 54 55 53 52 55 58 60 68 68 70 79 77 85 81 60 92 90 91 87 73 53
48 49 50 50 54 54 55 55 54 54 54 53 53 54 57 62 62 64 78 70 89 86 81 61 69 73 91 93 95 68 52 49
47 47 50 50 50 52 53 50 52 52 52 51 53 56 60 62 64 66 76 78 80 73 71 76 70 68 90 93 87 57 50 45

GFSFLT1_sfc_rhum_045.txt.gz
RH
52 47 42 40 45 51 53 53 60 69 70 49 43 38 42 36 37 41 52 52 57 57 48 52 53 47 47 46 46 39 32 31
49 48 46 46 47 49 48 54 55 64 63 48 42 41 38 37 39 44 49 52 56 56 47 53 54 48 49 50 47 45 37 33
48 46 40 45 43 44 46 47 49 58 60 49 40 38 34 36 40 54 61 56 54 54 53 52 55 48 52 54 49 42 37 36
40 42 41 40 41 43 42 43 47 48 45 44 41 37 37 38 41 47 63 59 52 54 54 52 53 50 52 54 49 46 39 42
29 34 41 42 42 41 42 42 42 52 47 48 46 39 41 43 51 57 58 64 58 51 51 54 55 52 52 52 43 44 43 49
27 29 29 34 41 42 45 42 41 42 45 46 50 47 42 41 45 58 64 57 60 55 54 58 60 53 52 52 46 47 46 56
24 26 27 28 32 42 47 44 42 42 44 48 52 54 53 55 66 60 54 56 60 59 53 60 63 60 54 48 48 64 60 60
22 23 26 29 32 39 43 42 40 43 51 63 62 65 70 81 81 73 66 66 66 64 61 66 67 67 59 50 69 69 74 69
22 20 22 26 31 35 42 41 43 41 58 73 81 73 81 84 91 91 84 82 80 69 71 73 69 65 66 72 67 66 76 71
19 20 21 23 28 36 45 46 43 43 60 89 89 73 74 78 83 81 86 83 72 71 76 70 67 65 66 63 65 62 61 65
17 18 21 23 26 33 45 46 46 51 72 71 70 72 71 73 78 81 81 72 69 71 69 65 58 54 63 66 59 52 62 70
22 22 21 22 25 29 37 44 44 54 60 64 62 61 68 79 83 84 79 76 71 63 60 60 64 67 68 64 60 57 58 71
20 25 28 30 32 32 38 44 45 42 65 67 66 66 64 83 85 84 82 78 69 61 63 64 69 65 67 64 61 55 59 82
21 28 32 34 36 38 41 44 43 41 43 59 72 81 84 89 87 86 81 79 72 67 67 67 66 65 62 68 68 85 88 78
19 26 31 34 41 44 47 49 48 48 48 50 59 73 76 78 81 82 82 79 77 73 69 74 66 72 67 72 82 83 69 66
20 27 31 38 45 47 51 55 56 53 52 53 66 64 63 68 71 71 71 70 68 68 70 65 73 81 78 84 70 57 72 76
31 32 36 43 48 50 54 56 57 54 53 56 55 54 52 55 55 59 60 60 61 64 77 81 83 67 83 87 82 72 80 81
36 39 43 46 49 51 54 52 51 50 50 50 51 52 53 55 51 53 56 62 62 74 74 67 68 59 89 91 94 81 84 80
41 41 43 44 43 44 46 44 46 47 48 50 51 53 55 53 55 57 62 65 66 67 63 58 61 70 91 91 93 81 64 53

GFSFLT1_sfc_rhum_048.txt.gz
RH
58 57 64 65 67 69 68 64 65 72 72 50 48 57 57 60 55 54 65 71 73 79 80 77 80 74 74 72 70 65 62 58
55 52 60 60 60 61 58 58 63 76 77 66 66 60 60 58 55 54 66 65 73 79 81 78 82 75 74 74 72 66 60 55
52 52 52 56 58 59 62 63 65 69 74 67 60 57 53 52 55 56 68 72 70 73 78 75 79 77 75 76 73 72 70 65
56 53 53 53 60 62 61 58 58 61 69 62 58 54 56 52 54 70 74 73 72 71 75 78 79 78 80 80 77 73 70 69
52 54 54 56 54 55 54 53 53 54 63 66 62 52 52 51 59 64 69 76 76 69 70 76 77 82 79 80 70 74 72 75
47 46 45 45 48 52 53 51 50 52 55 62 64 62 58 59 55 73 75 80 79 77 76 79 83 83 82 79 76 76 74 76
32 37 40 41 44 50 53 50 48 51 58 60 73 72 64 68 77 82 84 82 80 83 74 81 83 83 82 78 71 70 79 75
29 32 33 39 46 52 53 53 50 52 62 62 65 73 74 74 77 88 96 99 98 88 81 83 87 82 80 74 76 84 79 82
27 29 33 33 40 49 54 52 53 50 57 69 70 67 80 80 80 96 94 93 91 88 90 86 88 79 78 83 85 87 86 87
25 26 31 34 36 43 52 49 49 49 57 72 77 77 82 86 92 91 94 92 92 90 92 85 80 76 78 82 87 83 83 83
23 24 28 29 34 40 49 50 47 48 53 75 71 72 82 84 88 91 90 91 89 87 84 80 77 73 78 83 85 81 74 74
26 25 26 27 29 35 46 48 47 53 57 75 79 77 77 84 89 89 90 91 81 80 78 76 72 72 82 83 76 70 69 79
26 28 30 30 32 35 47 50 50 68 70 76 77 78 79 90 93 94 94 84 79 75 74 73 72 81 81 79 70 63 83 90
22 30 34 36 39 40 43 52 53 71 61 73 76 82 89 94 97 95 93 91 88 78 76 75 77 79 76 72 77 86 91 91
19 29 34 39 44 46 50 55 56 60 71 78 89 92 93 92 92 91 90 88 84 81 82 83 79 77 84 83 90 88 86 86
19 24 35 42 50 53 53 65 66 69 72 77 88 88 85 88 89 89 87 86 83 79 79 80 82 82 78 85 79 83 82 80
21 23 33 45 48 54 61 64 66 65 71 72 71 73 78 84 85 84 80 76 74 75 78 84 87 72 89 86 82 79 80 84
31 32 43 50 54 60 64 64 62 62 63 61 61 63 65 68 64 66 72 78 81 85 85 85 82 76 87 89 89 85 88 88
38 45 52 58 57 58 60 56 60 59 58 58 59 61 60 61 62 68 75 79 83 84 82 76 76 79 91 91 92 89 90 88